Location: Demmingen
(48.6757°N, 10.4375°E)
Time: 09:04:07
(UTC+00:00)

Cosmos 1455 Rocket - Pass Details

Date: 23 May 2024
Orbit: 602 x 625 km, 82.5° (Epoch: 15 June)

Event Time Altitude Azimuth Distance (km) Brightness Sun altitude
Rises 02:37:33 0° 355° (N) 2,881 7.1 -7.3°
Reaches altitude 10° 02:39:52 10° 2° (N) 1,976 6.4 -7.0°
Maximum altitude 02:44:03 44° 75° (ENE) 859 4.4 -6.5°
Drops below altitude 10° 02:48:14 10° 148° (SSE) 1,974 5.6 -6.0°
Sets 02:50:32 0° 155° (SSE) 2,879 6.3 -5.7°
